    Orbital elements:
    2020 EV                                                  Earth MOID = 0.1210 AU
    Epoch 2020 May 31.0 TT = JDT 2459000.5                  Veres
    M  73.73807              (2000.0)            P               Q
    n   0.53728804     Peri.   65.60525     +0.43786463     -0.89875837
    a   1.4985271      Node   357.95943     +0.40368816     +0.21894801
    e   0.6430004      Incl.   39.26854     +0.80331216     +0.37986203
    P   1.83           H   22.3           G   0.15           U   8
    Residuals in seconds of arc
    200315 G96  0.3-  0.4-    200315 160  0.1-  0.8-    200316 703 (1.1+  1.5+)
    200315 G96  0.2-  0.3-    200315 160 (7.6-  1.7-)   200316 703  0.9+  0.5+
    200315 G96  0.0   0.3-    200315 160  0.0   1.1+    200316 703  0.6-  0.2+
    200315 G96  0.1-  0.6-    200315 160  0.4+  0.1-    200316 703  0.7-  0.2-
    200315 I52  0.0   0.1+    200315 K63  0.1+  0.1+    200316 033  0.0   0.4-
    200315 I52  0.6+  0.2-    200315 K63  0.4-  0.1-    200316 033  0.1-  0.3-
    200315 I52  0.1-  0.2+    200315 K63  0.7-  0.3+    200316 033  0.1-  0.1-
    200315 I52  0.2+  0.0     200315 Z99  0.0   0.2-    200316 033  0.1-  0.2-
    200315 G96  0.3+  0.3+    200315 Z99  0.1-  0.1+    200316 246  0.1+  0.1-
    200315 G96  0.4+  0.0     200315 Z99  0.2-  0.2-    200316 246  0.7+  0.5+
    200315 G96  0.3+  0.1+    200315 C95  0.2-  0.3+    200316 246  0.1-  0.9+
    200315 G96  0.1+  0.2+    200315 K87  0.2+  0.1-    200316 246  0.1+  0.1+
    200315 L01  0.2+  0.0     200315 C95  0.3+  0.5+    200316 246  0.0   0.4-
    200315 L01  0.2-  0.1-    200315 K87  0.5+  0.4-    200316 246  0.6-  1.3-
    200315 L01  0.4-  0.2-    200316 C95  0.8+  0.4-    200317 033  0.0   0.1-
    200315 L01  0.4-  0.1+    200316 K87  0.5+  0.1+    200317 033  0.2-  0.2-
    200315 L01  0.3-  0.1+    200316 C95  0.4-  0.2+    200317 033  0.2-  0.2-
    200315 L01  0.2-  0.0     200316 J95  0.2-  0.3-    200317 204  0.1-  0.2+
    200315 L01  0.3-  0.0     200316 J95  0.1-  0.0     200317 I52  0.2+  0.2-
    200315 L04  0.0   0.3+    200316 J95  0.2-  0.3+    200317 I52  0.0   0.5+
    200315 L04  0.3-  0.3+    200316 J95  0.0   0.1-    200317 204  0.1-  0.3-
    200315 L04  0.1-  0.3+    200316 I52  0.1+  0.2+    200317 I52  0.4+  0.2+
    200315 160  0.9+  0.9+    200316 I52  0.2+  0.6-    200317 I52  0.6+  0.4+
    200315 160  1.1+  0.4+    200316 I52  0.1+  0.1+    200317 204  0.0   0.0
    200315 160  0.6+  0.8-    200316 I52  0.1-  0.3+
    
    Ephemeris:
    2020 EV                  a,e,i = 1.50, 0.64, 39                  q = 0.5350
    Date    TT    R. A. (2000) Decl.     Delta      r    Elong.  Phase     V
    2020 02 16    20 25 40.7 +30 08 24   0.3900  0.7818    47.9   110.4    23.9
    ...
    2020 03 02    18 56 53.9 +46 02 08   0.1912  0.9580    74.6    94.4    22.0
    ...
    2020 03 10    14 51 53.6 +53 59 48   0.1240  1.0506   114.5    59.3    20.0
    ...
    2020 03 16    11 39 51.5 +30 49 39   0.1390  1.1182   150.9    25.6    19.4
    2020 03 17    11 24 05.4 +26 44 45   0.1474  1.1293   154.0    22.7    19.5
    2020 03 18    11 11 04.9 +23 02 00   0.1570  1.1404   155.9    20.9    19.6
    ...
    2020 03 24    10 26 24.2 +07 54 41   0.2309  1.2055   151.8    23.0    20.6
    ...
    2020 04 01    10 04 14.6 -01 20 31   0.3509  1.2893   140.5    29.6    21.9
    ...
    2020 04 16    09 55 33.1 -08 11 58   0.6003  1.4367   125.3    34.7    23.4
    
    A. U. Tomatic                (C) Copyright 2020 MPC           M.P.E.C. 2020-F14
    


    Read MPEC 2020-F13 Read MPEC 2020-F15


    MPEC number:

    Enter an MPEC number in one of the following forms:

    • 1997-B01 (the full form)
    • J97B01 (the packed version of the full form)
    • B01 (the abbreviated form)